www.pogodaiklimat.ru

Погода и климат >> Архив погоды >> Россия >> Якутия >> Амга


ПОГОДА в Амге

  • Прогноз погоды в Амге
  • Монитор погоды в Амге

АРХИВ ПОГОДЫ в Амге

Время (UTC), дата Ветер
(напр.,м/с)
 
Видим.   Явления Облачность Т
(С)
Тd
(С)
f
(%)
Тe
(С)
Тes
(С)
Комфортность P
(гПа)
Po
(гПа)
Тmin
(С)
Tmax
(С)
R
(мм)
R24
(мм)
S
(см)
21 11.09 штиль 0 10 км местами туман поземный 3/0
[Ci fib]
+1.1 +0.8 98 -0 -0 1009.2 991.0
00 12.09 З 1 50 км 10/0
[Ac trans Ci fib]
+9.7 +5.3 74 +9 +12 1008.4 990.9 +0.7
03 12.09 З 2 50 км 5/0
[Ac trans Ci fib]
+18.4 +6.6 46 +19 +24 1006.8 989.8
06 12.09 Ю 5 50 км 10/0
[Ac trans Ci fib]
+19.8 +4.8 37 +20 +21 1004.8 987.9
09 12.09 Ю 6 50 км 10/0
[Ac As Ci fib]
+18.2 +5.0 42 +18 +18 1002.7 985.7
12 12.09 В 2 20 км 10/0
[Ac cuf Ci fib]
+13.4 +7.5 67 +13 +13 1000.9 983.7 +20.3
15 12.09 В 3 20 км слаб. дождь 10/0
[As op]
+14.4 +7.5 63 +14 +14 997.3 980.2
18 12.09 ЮВ 2 10 км слаб. дождь 10/0
[As op]
+12.2 +9.0 81 +11 +11 994.2 977.0
21 12.09 Ю 3 50 км {дождь} 10/0
[As op]
+12.1 +10.4 89 +10 +10 992.4 975.2
00 13.09 ЮЗ 6
{11}
50 км {дождь} 10/3 600 м
[Cb cap Ac As Ci fib]
+11.9 +8.5 80 +9 +10 993.7 976.5 +11.9 3
03 13.09 Ю 5
{10}
20 км слаб. дождь 10/8 600 м
[Frnb As op]
+10.8 +9.0 89 +8 +8 994.3 977.1 +10.8
06 13.09 Ю 5 20 км слаб. дождь 10/8 600 м
[Frnb As op]
+10.4 +9.6 95 +7 +7 995.1 977.8
09 13.09 ЮЗ 4 20 км слаб. дождь 10/8 600 м
[Frnb As op]
+9.9 +9.5 97 +7 +7 997.2 979.8
12 13.09 ЮЗ 3 20 км слаб. дождь 10/6 600 м
[Frnb As op]
+7.2 +5.2 87 +4 +4 999.6 982.1 +11.9 4
15 13.09 ЮЗ 2 20 км 10/8 600 м
[Frnb As op]
+6.7 +3.6 81 +5 +5 1001.1 983.4
18 13.09 ЮЗ 1 20 км 10/8 600 м
[Frnb Ac As]
+5.1 +0.1 70 +4 +4 1002.6 984.8 26
21 13.09 З 3 50 км 10/0
[Ac lent Ci fib]
+2.1 -3.6 66 -2 -2 1004.3 986.3
00 14.09 З 2 50 км 10/5 600 м
[Cb calv Ac trans Ci fib]
+2.5 -5.3 56 -0 +1 1005.8 987.7 +2.1 0.0
03 14.09 СЗ 4 50 км 10/4 600 м
[Sc Ac trans Ci fib]
+7.1 -6.4 38 +4 +6 1005.5 987.7
06 14.09 З 3 50 км 10/0
[Ac trans Ci fib]
+9.0 -8.0 29 +7 +9 1005.3 987.6
09 14.09 СЗ 3 50 км 10/0
[Ac trans Ci fib]
+8.0 -8.0 31 +6 +6 1005.6 987.9
12 14.09 СЗ 1 20 км 10/0
[Ac trans Ci fib]
-2.4 -5.8 77 -4 -4 1007.3 988.9 +9.0
15 14.09 СЗ 1 20 км 10/0
[Ac trans Ci fib]
-5.8 -16.9 41 -7 -7 1008.0 989.4
18 14.09 СЗ 1 20 км 10/0
[Ac trans Ci fib]
-7.4 -8.0 95 -10 -10 1007.8 989.1
21 14.09 СЗ 1 500 м туман 10/0
[Ci fib]
-7.1 -6.9 100 -10 -10 1007.8 989.1
00 15.09 В 2 50 км в посл. час туман 3/0
[Ci fib]
-2.0 -2.6 96 -6 -4 1007.2 988.8 -8.2
03 15.09 В 2 50 км 1/0
[Ci fib]
+9.5 -6.1 33 +9 +14 1004.7 987.1
06 15.09 В 4 50 км 3/0
[Ac trans Ci fib]
+13.0 -11.1 18 +12 +14 1002.5 985.2
09 15.09 В 3 50 км 3/1 600 м
[Cu hum Ac lent Ci fib]
+9.9 -6.2 32 +8 +8 1002.7 985.2
12 15.09 В 3 20 км 4/0
[Ac trans Ci fib]
+3.0 -4.6 57 -0 -0 1004.2 986.2 +13.5
15 15.09 штиль 0 20 км 3/0
[Ci fib]
-1.2 -6.3 68 -2 -2 1004.7 986.5
18 15.09 штиль 0 10 км 10/0
[As op]
-5.3 -7.8 83 -6 -6 1005.2 986.7
21 15.09 В 1 50 км 9/0
[As trans]
-3.7 -6.2 83 -6 -6 1005.0 986.6
00 16.09 В 1 50 км 10/3 600 м
[Sc Ac As]
+1.0 -4.6 66 -0 0 1004.9 986.7 -5.6
03 16.09 СВ 5 50 км 10/4 600 м
[Sc Ac As]
+5.8 -2.9 54 +2 +2 1003.1 985.4
06 16.09 СВ 5 50 км 10/5 600 м
[Cb calv Ac As]
+7.8 -1.7 51 +5 +5 1002.8 985.2
09 16.09 СВ 4 50 км 10/0
[Ac As]
+7.2 -1.2 55 +4 +4 1003.7 986.0
12 16.09 СВ 4 10 км слаб. дождь 10/0 600 м
[As op]
+4.4 +2.9 90 0 0 1004.1 986.3 +8.1 0.7
15 16.09 С 1 20 км {дождь} 10/0
[Ac As]
+4.1 +3.1 93 +3 +3 1002.9 985.1
18 16.09 С 1 10 км слаб. дождь 10/0
[As op]
+4.3 +3.8 97 +3 +3 1002.3 984.5
21 16.09 С 3 10 км слаб. дождь 10/0
[As op]
+4.4 +4.4 100 +1 +1 1002.8 985.0
00 17.09 С 4 4000 м слаб. дождь 10/0 600 м
[As op]
+4.4 +4.2 99 -0 0 1003.5 985.7 +3.7 5
03 17.09 В 3 50 км {дождь} 10/10 600 м
[Cb cap]
+6.0 +2.3 77 +3 +3 1004.8 987.1
06 17.09 СВ 3 50 км {дождь} 10/8 600 м
[Cb cap Ac trans]
+7.8 +0.8 61 +5 +6 1005.0 987.4
09 17.09 Ю 2 50 км 10/8 600 м
[Cb cap Ac trans Ci fib]
+5.9 +1.1 71 +4 +4 1006.8 989.0
12 17.09 Ю 1 20 км слаб. дождь 10/0
[Ac As]
+3.1 +2.6 97 +1 +1 1008.0 990.0 +8.3 0.3
15 17.09 Ю 1 10 км слаб. дождь 10/0
[As op]
+3.5 +3.3 99 +2 +2 1008.2 990.2
18 17.09 штиль 0 10 км слаб. дождь 10/0
[As op]
+3.3 +3.3 100 +2 +2 1008.3 990.3
21 17.09 В 1 50 км {дождь} 10/4 600 м
[Sc Ac As]
+2.0 +1.5 96 0 0 1009.9 991.8
00 18.09 штиль 0 50 км {дождь} 10/6 600 м
[Frnb Ac As]
+2.9 +2.9 100 +2 +2 1011.1 993.0 +2.0 3
03 18.09 З 2 20 км слаб. дождь 10/8 600 м
[Frnb Ac As]
+4.1 +4.1 100 +1 +1 1012.5 994.5
06 18.09 ЮЗ 3 50 км в посл. час дождь 10/6 600 м
[Frnb Ac trans Ci fib]
+4.3 +4.3 100 0 +1 1014.0 996.0
09 18.09 ЮЗ 4 50 км {дождь} 10/6 600 м
[Cb calv Ac trans Ci fib]
+4.1 +2.9 92 -0 -0 1015.8 997.7
12 18.09 Ю 3 20 км {дождь} 10/6 600 м
[Cb calv Ac trans Ci fib]
+3.2 +2.7 97 -1 -1 1016.9 998.7 +4.3 2
15 18.09 Ю 2 20 км 10/6 600 м
[Cb calv Ac trans Ci fib]
+1.4 +0.6 94 -2 -2 1017.2 998.9

 

Местоположение метеостанции Амга (Якутия, Россия): широта 60.90 долгота 131.90 высота над уровнем моря 146 м.

В архиве по умолчанию представлена погода в Амге за последнюю неделю. Архивные данные за месяц целиком и за предыдущие месяцы, начиная с января 2011 года, Вы можете получить, выбрав интересующий диапазон дат из раскрывающегося списка и нажав кнопку "Ввод!".


*Определитесь, кто Вы:
робот инопланетянин человек

Внимание! Время в таблицах - всемирное. Для получения местного времени необходимо прибавить поправку, которая равна 9 ч.

Смотрите также архив погоды в соседних городах и на ближайших метеорологических станциях:

Погода в Тегюльте (Якутия, Россия) (114 км)
Погода в Чурапче (Якутия, Россия) (131 км)
Погода в Усть-Мае (Якутия, Россия) (149 км)
Погода в Усть-Миле (Якутия, Россия) (154 км)
Погода в Покровске (Якутия, Россия) (163 км)
Погода в Якутске (Якутия, Россия) (173 км)
Погода в Ытык-Кюёле (Якутия, Россия) (184 км)
Погода в Охотском Перевозе (Якутия, Россия) (220 км)
Погода в Намцах (Якутия, Россия) (236 км)
Погода в Крест-Хальджае (Якутия, Россия) (251 км)

Пояснения к столбцам:

Ветер - указаны скорость ветра в м/с - средняя за 10 мин, порывы в срок и между сроками (в фигурных скобках) и направление, откуда дует ветер: С - северный, СВ - северо-восточный, В - восточный, ЮВ - юго-восточный, Ю - южный, ЮЗ - юго-западный, З - западный, СЗ - северо-западный.
Видимость - горизонтальная дальность видимости в метрах или километрах. При видимости от 1 до 10 км при отсутствии осадков обычно наблюдается дымка, при ухудшении видимости до 1 км и менее - туман. В сухую погоду видимость может ухудшаться дымом, пылью или мглою.
Явления - указаны атмосферные явления, наблюдавшиеся в срок или в последний час перед сроком; фигурными скобками обозначены явления, наблюдавшиеся между сроками (за 1-3 часа до срока); квадратными скобками обозначены град или гололедные отложения с указанием их диаметра в мм.
Облачность - указаны через наклонную черту общая и нижняя облачность в баллах и высота нижней границы облаков в метрах; квадратными скобками обозначены формы облаков: Ci - перистые, Cs - перисто-слоистые, Cc - перисто-кучевые, Ac - высококучевые, As - высокослоистые, Sc - слоисто-кучевые, Ns - слоисто-дождевые, Cu - кучевые, Cb - кучево-дождевые. Подробнее классификацию облаков см. в Атласе облаков (PDF).
T - Температура воздуха - температура, измеренная на высоте 2 м над землей.
Td - Температура точки росы - температура, при понижении до которой содержащийся в воздухе водяной пар достигнет насыщения.
f - Относительная влажность воздуха - влажноcть воздуха, измеренная на высоте 2 м над землей.
Te - Эффективная температура - температура, которую ощущает одетый по сезону человек в тени. Характеристика душности погоды. При расчете учитывается влияние влажности воздуха и скорости ветра на теплоощущения человека.
Tes - Эффективная температура на солнце - температура, которую ощущает человек, с поправкой на солнечный нагрев. Характеристика знойности погоды. Зависит от высоты солнца над горизонтом, облачности и скорости ветра. Ночью, в пасмурную погоду, а также при ветре 12 м/с и более поправка равна нулю.
P - Атмосферное давление - приведенное к уровню моря атмосферное давление.
Po - Атмосферное давление - измеренное на уровне метеостанции атмосферное давление.
Tmin - Минимальная температура - минимум температуры воздуха на высоте 2 м над землей.
Tmax - Максимальная температура - максимум температуры воздуха на высоте 2 м над землей.
R - Количество осадков - Количество выпавших осадков за период времени, мм. При наведении курсора мыши на число - период времени, за который выпало указанное количество осадков.
R24 - Количество осадков - Количество выпавших осадков за 24 часа, мм.
S - Снежный покров - Высота снежного покрова, см. При наведении курсора мыши на число - состояние снежного покрова и степень покрытия местности в баллах.